Regional Weather Roundup
Issued by NWS

Home | Current Version | Previous Version | Graphics & Text | Print | Product List | Glossary On
Versions: 1 2 3 4 5 6 7 8 9 10 11 12 13 14 15 16 17 18 19 20 21 22 23 24 25 26 27 28 29 30 31 32 33 34 35 36 37 38 39 40 41 42 43 44 45 46 47 48 49 50
000
ASUS43 KDMX 060108
RWRIA

WEATHER ROUNDUP FOR IOWA
NATIONAL WEATHER SERVICE DES MOINES IA
800 PM CDT THU MAY 05 2016

NOTE: "FAIR" INDICATES FEW OR NO CLOUDS BELOW 12,000 FEET WITH NO
SIGNIFICANT WEATHER AND/OR OBSTRUCTIONS TO VISIBILITY.

* - THESE STATIONS ARE NOT NWS STATIONS...THUS NOT UNDER NWS
QUALITY CONTROL.  THEY ALSO DO NOT REPORT WEATHER SUCH
AS PRECIPITATION OR FOG.

IAZ001>003-012>014-020>022-031>034-043>046-060200-
   NORTHWEST IOWA

CITY           SKY/WX    TMP DP  RH WIND       PRES   REMARKS
CARROLL *      CLEAR     72  41  33 W6        29.98S
CHEROKEE *     CLEAR     70  43  37 S5        29.96F
DENISON *      CLEAR     72  41  33 CALM      29.97S
LE MARS *      CLEAR     72  43  35 S9        29.96S
ORANGE CITY *  CLEAR     72  45  37 S7        29.96S
SHELDON *      CLEAR     72  41  33 S8        29.94S
SIOUX CITY     CLEAR     73  47  39 S12       29.95S
SPENCER        CLEAR     71  40  32 S9        29.96S
STORM LAKE *   CLEAR     70  41  35 SW7       29.98S
$$

IAZ055>058-069>071-079>083-090>094-060200-
   SOUTHWEST IOWA

CITY           SKY/WX    TMP DP  RH WIND       PRES   REMARKS
ATLANTIC *     CLEAR     68  45  42 S6        30.00R
AUDUBON *      CLEAR     68  39  34 CALM      30.01S
CLARINDA *       N/A     70  41  35 MISG      30.02S
COUNCIL BLFS * CLEAR     72  39  30 S5        30.00S
CRESTON *      CLEAR     68  41  37 SW5       30.02F
HARLAN  *      CLEAR     70  41  35 SW6       30.03S
LAMONI         CLEAR     66  41  40 CALM      30.01F
RED OAK *      CLEAR     70  43  37 S5        30.01S
SHENANDOAH *   CLEAR     73  37  27 CALM      30.01S
$$

IAZ047>049-059>061-072>074-084-060200-
   CENTRAL IOWA

CITY           SKY/WX    TMP DP  RH WIND       PRES   REMARKS
AMES           CLEAR     66  40  38 SW6       29.98F
ANKENY *       CLEAR     66  39  37 CALM      29.99S
BOONE *        CLEAR     70  36  28 S5        29.98S
CHARITON *     CLEAR     66  36  32 CALM      30.01S
DES MOINES     PTCLDY    68  36  30 S6        30.00S
GRINNELL*      CLEAR     64  34  32 SW6       30.01S
KNOXVILLE *    CLEAR     66  34  30 S3        29.99F
MARSHALLTOWN   CLEAR     64  39  39 SW7       29.98S
NEWTON *       CLEAR     64  36  34 S6        29.99F
PERRY *          N/A     70  39  32 SW7       29.99S
$$

IAZ004>006-015-016-023>025-035-036-060200-
   NORTH CENTRAL IOWA

CITY           SKY/WX    TMP DP  RH WIND       PRES   REMARKS
ALGONA *       CLEAR     73  39  29 SW7       29.96F
CLARION *      CLEAR     72  37  28 W7        29.96S
ESTHERVILLE    CLEAR     71  42  35 SW10      29.94F
FORT DODGE *   CLEAR     66  43  42 SW5       29.98S
MASON CITY     CLEAR     67  41  38 W6        29.96F
FOREST CITY *  CLEAR     70  36  28 CALM      29.95F
WEBSTER CITY * CLEAR     70  39  32 SW7       29.95F
IOWA FALLS *     N/A     68  37  32 SW7       29.99S
$$

IAZ007>011-017>019-026>030-037>042-050>054-066-060200-
   NORTHEAST IOWA

CITY           SKY/WX    TMP DP  RH WIND       PRES   REMARKS
CEDAR RAPIDS   CLEAR     64  36  35 CALM      29.98S
CHARLES CITY * CLEAR     66  37  34 S7        29.96F
CLINTON *      CLEAR     62  39  42 NW3       29.99S
DECORAH *      CLEAR     66  36  32 S3        29.95S
DUBUQUE        CLEAR     62  34  35 CALM      29.98F
MONTICELLO *   CLEAR     66  34  30 CALM      29.97S
OELWEIN *      CLEAR     64  37  36 SW6       29.97F
WATERLOO       CLEAR     65  34  31 SE6       29.96F
$$

IAZ064-065-067-068-078-060200-
   EAST CENTRAL IOWA

CITY           SKY/WX    TMP DP  RH WIND       PRES   REMARKS
DAVENPORT      CLEAR     62  38  40 CALM      29.99S
IOWA CITY      CLEAR     64  34  32 W3        30.00S
MT. PLEASANT * CLEAR     66  34  30 W5        30.00S
MUSCATINE *    CLEAR     64  36  34 CALM      29.99S
QUAD CITIES    CLEAR     64  35  34 CALM      29.98S
$$

IAZ062-063-075>077-085>089-095>099-060200-
   SOUTHEAST IOWA

CITY           SKY/WX    TMP DP  RH WIND       PRES   REMARKS
BURLINGTON     CLEAR     63  37  38 N3        30.00S
FAIRFIELD *    CLEAR     63  32  31 N3        30.00S
FORT MADISON * CLEAR     63  39  42 CALM      30.01S
KEOKUK *       CLEAR     64  37  36 CALM      30.00S
OSKALOOSA *      N/A     63  36  36 W7        30.01S
OTTUMWA        CLEAR     63  34  33 CALM      30.00F
WASHINGTON *   CLEAR     64  34  32 W5        30.01S
$$

ABBREVIATIONS USED IN REMARKS
   TC - TEMPERATURES IN CELSIUS
  WCI - WIND CHILL INDEX
   HX - HEAT INDEX
  VSB - VISIBILITY
$$




USA.gov is the U.S. government's official web portal to all federal, state and local government web resources and services.